Weather History for KUSE - August, 2014

Change the Weather History Date:

Thursday, August 28, 2014

  Actual Average (KTOL) Record (KTOL)
Temperature  
Mean Temperature 67 °F 70 °F  
Max Temperature 77 °F 81 °F 96 °F (1973)
Min Temperature 57 °F 59 °F 41 °F (1982)
Degree Days  
Heating Degree Days 0 1  
Month to date heating degree days 4  
Since 1 June heating degree days 42  
Since 1 July heating degree days 7  
Cooling Degree Days 2 6  
Month to date cooling degree days 199  
Year to date cooling degree days 687  
Since 1 June cooling degree days 634  
Growing Degree Days 17 (Base 50)    
Moisture  
Dew Point 58 °F    
Average Humidity 78    
Maximum Humidity 100    
Minimum Humidity 50    
Precipitation  
Precipitation 0.00 in 0.10 in 1.33 in (2006)
Month to date precipitation 2.86  
Year to date precipitation 23.03  
Snow  
Snow 0.00 in 0.00 in - ()
Month to date snowfall 0.0  
Since 1 June snowfall 0.0  
Since 1 July snowfall 0.0  
Snow Depth -    
Sea Level Pressure  
Sea Level Pressure 30.13 in    
Wind  
Wind Speed 4 mph (ENE)    
Max Wind Speed 9 mph    
Max Gust Speed 12 mph    
Visibility 10 miles    
Events      
T = Trace of Precipitation, MM = Missing Value Source: NWS Daily Summary

Daily Weather History Graph

Daily Weather History Graph

Search for Another Location

Airport or City:

Trip Planner

Search our weather history database for the weather conditions in past years. The results will help you decide how hot, cold, wet, or windy it might be!

Date:

Astronomy

Aug. 28, 2014 Rise Set
Actual Time 6:58 AM EDT 8:16 PM EDT
Civil Twilight 6:29 AM EDT 8:44 PM EDT
Nautical Twilight 5:55 AM EDT 9:19 PM EDT
Astronomical Twilight 5:18 AM EDT 9:55 PM EDT
Moon 9:52 AM EDT (8/28) 9:36 PM EDT (8/28)
Length of Visible Light 14h 15m
Length of Day
13h 17m
Waxing Crescent, 8% of the Moon is Illuminated
Aug 28
Waxing Crescent
Sep 2
First Quarter
Sep 8
Full
Sep 15
Last Quarter
Sep 24
New

Hourly Weather History & Observations

Time (EDT) Temp. Dew Point Humidity Pressure Visibility Wind Dir Wind Speed Gust Speed Precip Events Conditions
12:15 AM 60.8 °F 59.0 °F 94% 30.11 in 10.0 mi Calm Calm - N/A   Clear
12:35 AM 59.0 °F 57.2 °F 94% 30.11 in 10.0 mi Calm Calm - N/A   Clear
12:55 AM 59.0 °F 57.2 °F 94% 30.11 in 10.0 mi Calm Calm - N/A   Clear
1:15 AM 59.0 °F 57.2 °F 94% 30.11 in 10.0 mi Calm Calm - N/A   Clear
1:35 AM 59.0 °F 59.0 °F 100% 30.11 in 10.0 mi Calm Calm - N/A   Clear
1:55 AM 59.0 °F 57.2 °F 94% 30.10 in 10.0 mi North 3.5 mph - N/A   Clear
2:15 AM 57.2 °F 57.2 °F 100% 30.11 in 10.0 mi NNE 3.5 mph - N/A   Clear
2:35 AM 57.2 °F 57.2 °F 100% 30.10 in 10.0 mi Calm Calm - N/A   Clear
2:55 AM 57.2 °F 55.4 °F 94% 30.10 in 10.0 mi Calm Calm - N/A   Clear
3:15 AM 59.0 °F 57.2 °F 94% 30.11 in 10.0 mi NNE 4.6 mph - N/A   Clear
3:35 AM 59.0 °F 57.2 °F 94% 30.11 in 9.0 mi NNE 5.8 mph - N/A   Clear
3:55 AM 59.0 °F 59.0 °F 100% 30.12 in 9.0 mi NNE 5.8 mph - N/A   Clear
4:15 AM 59.0 °F 59.0 °F 100% 30.12 in 9.0 mi NE 4.6 mph - N/A   Partly Cloudy
4:35 AM 59.0 °F 59.0 °F 100% 30.12 in 10.0 mi North - - N/A   Mostly Cloudy
4:55 AM 59.0 °F 59.0 °F 100% 30.13 in 10.0 mi NE 8.1 mph - N/A   Overcast
5:15 AM 60.8 °F 57.2 °F 88% 30.14 in 10.0 mi NE 5.8 mph - N/A   Overcast
5:35 AM 59.0 °F 57.2 °F 94% 30.14 in 10.0 mi NE 8.1 mph - N/A   Overcast
5:55 AM 59.0 °F 57.2 °F 94% 30.14 in 10.0 mi NE 6.9 mph - N/A   Overcast
6:15 AM 59.0 °F 57.2 °F 94% 30.14 in 10.0 mi NE 6.9 mph - N/A   Scattered Clouds
6:35 AM 59.0 °F 57.2 °F 94% 30.14 in 10.0 mi NE 5.8 mph - N/A   Mostly Cloudy
6:55 AM 59.0 °F 57.2 °F 94% 30.15 in - NE 4.6 mph - N/A   Overcast
7:15 AM 59.0 °F 57.2 °F 94% 30.15 in 10.0 mi NE 4.6 mph - N/A   Overcast
7:35 AM 59.0 °F 57.2 °F 94% 30.15 in 10.0 mi NE 5.8 mph - N/A   Mostly Cloudy
7:55 AM 60.8 °F 57.2 °F 88% 30.16 in 10.0 mi ENE 3.5 mph - N/A   Overcast
8:15 AM 60.8 °F 57.2 °F 88% 30.16 in 10.0 mi NE 5.8 mph - N/A   Scattered Clouds
8:35 AM 62.6 °F 57.2 °F 82% 30.16 in 10.0 mi Variable 4.6 mph - N/A   Mostly Cloudy
8:55 AM 62.6 °F 57.2 °F 82% 30.16 in 10.0 mi Variable 5.8 mph - N/A   Overcast
9:15 AM 64.4 °F 57.2 °F 77% 30.16 in 10.0 mi ENE 6.9 mph - N/A   Overcast
9:35 AM 66.2 °F 59.0 °F 78% 30.16 in 10.0 mi ENE 9.2 mph - N/A   Mostly Cloudy
9:55 AM 66.2 °F 59.0 °F 78% 30.16 in 10.0 mi ENE 8.1 mph - N/A   Mostly Cloudy
10:15 AM 68.0 °F 59.0 °F 73% 30.17 in 10.0 mi NE 8.1 mph - N/A   Overcast
10:55 AM 68.0 °F 59.0 °F 73% 30.17 in 10.0 mi Variable 8.1 mph - N/A   Overcast
11:15 AM 68.0 °F 59.0 °F 73% 30.17 in 10.0 mi ENE 5.8 mph - N/A   Mostly Cloudy
11:35 AM 69.8 °F 59.0 °F 68% 30.16 in 10.0 mi ENE 8.1 mph - N/A   Mostly Cloudy
11:55 AM 71.6 °F 60.8 °F 69% 30.16 in 10.0 mi ESE 6.9 mph - N/A   Mostly Cloudy
12:15 PM 69.8 °F 59.0 °F 68% 30.16 in 10.0 mi Variable 5.8 mph 11.5 mph N/A   Overcast
12:35 PM 71.6 °F 60.8 °F 69% 30.16 in 10.0 mi East 5.8 mph - N/A   Overcast
12:55 PM 71.6 °F 59.0 °F 64% 30.15 in 10.0 mi Variable 5.8 mph - N/A   Overcast
1:15 PM 73.4 °F 59.0 °F 61% 30.15 in 10.0 mi Variable 4.6 mph - N/A   Scattered Clouds
1:35 PM 73.4 °F 59.0 °F 61% 30.14 in 10.0 mi Calm Calm - N/A   Scattered Clouds
1:55 PM 73.4 °F 59.0 °F 61% 30.14 in 10.0 mi ENE 4.6 mph 11.5 mph N/A   Scattered Clouds
2:15 PM 75.2 °F 59.0 °F 57% 30.14 in 10.0 mi Variable 3.5 mph - N/A   Clear
2:35 PM 75.2 °F 59.0 °F 57% 30.13 in 10.0 mi East 5.8 mph - N/A   Partly Cloudy
2:55 PM 77.0 °F 57.2 °F 50% 30.13 in 10.0 mi Variable 3.5 mph - N/A   Scattered Clouds
3:15 PM 77.0 °F 57.2 °F 50% 30.12 in 10.0 mi Variable 3.5 mph - N/A   Scattered Clouds
3:35 PM 75.2 °F 59.0 °F 57% 30.12 in 10.0 mi East 6.9 mph - N/A   Mostly Cloudy
3:55 PM 75.2 °F 57.2 °F 53% 30.12 in 10.0 mi Calm Calm - N/A   Mostly Cloudy
4:15 PM 77.0 °F 57.2 °F 50% 30.11 in 10.0 mi Variable 5.8 mph 11.5 mph N/A   Scattered Clouds
4:35 PM 75.2 °F 57.2 °F 53% 30.11 in 10.0 mi Variable 5.8 mph - N/A   Partly Cloudy
4:55 PM 75.2 °F 57.2 °F 53% 30.11 in 10.0 mi NNE 5.8 mph - N/A   Partly Cloudy
5:15 PM 77.0 °F 57.2 °F 50% 30.10 in 10.0 mi ESE 6.9 mph - N/A   Mostly Cloudy
5:35 PM 73.4 °F 57.2 °F 57% 30.10 in 10.0 mi East 3.5 mph - N/A   Partly Cloudy
5:55 PM 77.0 °F 57.2 °F 50% 30.10 in 10.0 mi East 5.8 mph - N/A   Clear
6:15 PM 75.2 °F 57.2 °F 53% 30.10 in 10.0 mi ESE 5.8 mph - N/A   Clear
6:35 PM 75.2 °F 55.4 °F 50% 30.10 in 10.0 mi Calm Calm - N/A   Clear
6:55 PM 73.4 °F 57.2 °F 57% 30.10 in 10.0 mi East 4.6 mph - N/A   Clear
7:15 PM 73.4 °F 57.2 °F 57% 30.10 in 10.0 mi East 4.6 mph - N/A   Clear
7:35 PM 69.8 °F 59.0 °F 68% 30.10 in 10.0 mi ESE 5.8 mph - N/A   Clear
7:55 PM 68.0 °F 59.0 °F 73% 30.10 in 10.0 mi East 6.9 mph - N/A   Clear
8:15 PM 66.2 °F 59.0 °F 78% 30.10 in 10.0 mi East 5.8 mph - N/A   Clear
8:35 PM 66.2 °F 59.0 °F 78% 30.11 in 10.0 mi ESE 6.9 mph - N/A   Clear
8:55 PM 64.4 °F 59.0 °F 83% 30.12 in 10.0 mi SE 6.9 mph - N/A   Clear
9:15 PM 64.4 °F 59.0 °F 83% 30.12 in 10.0 mi ESE 5.8 mph - N/A   Clear
9:35 PM 62.6 °F 59.0 °F 88% 30.12 in 10.0 mi ESE 5.8 mph - N/A   Clear
9:55 PM 62.6 °F 59.0 °F 88% 30.13 in 10.0 mi ESE 4.6 mph - N/A   Clear
10:15 PM 62.6 °F 57.2 °F 82% 30.13 in 10.0 mi ESE 4.6 mph - N/A   Clear
10:35 PM 60.8 °F 57.2 °F 88% 30.13 in 10.0 mi ESE 4.6 mph - N/A   Clear
10:55 PM 60.8 °F 57.2 °F 88% 30.13 in 10.0 mi ESE 5.8 mph - N/A   Clear
11:15 PM 60.8 °F 57.2 °F 88% 30.14 in 10.0 mi SE 5.8 mph - N/A   Clear
11:35 PM 59.0 °F 57.2 °F 94% 30.14 in 10.0 mi SE 4.6 mph - N/A   Clear
11:55 PM 59.0 °F 57.2 °F 94% 30.13 in 10.0 mi SE 5.8 mph - N/A   Clear